Albion, NE

10:37 AM CST on December 15, 2017 (GMT -0600)
Albion Municipal

Weather History for KBVN - February, 2013

Change the Weather History Date:

Wednesday, February 13, 2013

  Actual Average (KOFK) Record (KOFK)
Temperature  
Mean Temperature 38 °F -  
Max Temperature 54 °F 36 °F 70 °F (1934)
Min Temperature 22 °F 15 °F -29 °F (1905)
Degree Days  
Heating Degree Days 27    
Moisture  
Dew Point 24 °F    
Average Humidity 60    
Maximum Humidity 89    
Minimum Humidity 28    
Precipitation  
Precipitation 0.00 in - - ()
Sea Level Pressure  
Sea Level Pressure 29.80 in    
Wind  
Wind Speed 6 mph (WNW)    
Max Wind Speed 16 mph    
Max Gust Speed 24 mph    
Visibility 10 miles    
Events      
Averages and records for this station are not official NWS values.
T = Trace of Precipitation, MM = Missing Value Source: NWS Daily Summary

Daily Weather History Graph

Daily Weather History Graph

Search for Another Location

Airport or City:

Trip Planner

Search our weather history database for the weather conditions in past years. The results will help you decide how hot, cold, wet, or windy it might be!

Date:

Astronomy

Feb. 13, 2013 Rise Set
Actual Time 7:30 AM CST 6:03 PM CST
Civil Twilight 7:01 AM CST 6:32 PM CST
Nautical Twilight 6:28 AM CST 7:04 PM CST
Astronomical Twilight 5:56 AM CST 7:37 PM CST
Moon 8:56 AM CST (2/13) 10:12 PM CST (2/13)
Length of Visible Light 11h 30m
Length of Day
10h 33m
Waxing Crescent, 14% of the Moon is Illuminated
Feb 13
Waxing Crescent
Feb 17
First Quarter
Feb 25
Full
Mar 4
Last Quarter
Mar 11
New

Hourly Weather History & Observations

Time (CST) Temp. Windchill Dew Point Humidity Pressure Visibility Wind Dir Wind Speed Gust Speed Precip Events Conditions
12:15 AM 30.4 °F 23.6 °F 23.9 °F 77% 29.90 in 10.0 mi NNW 6.9 mph - N/A   Clear
12:35 AM 30.7 °F 22.6 °F 23.9 °F 76% 29.89 in 10.0 mi NNW 9.2 mph - N/A   Clear
12:55 AM 31.1 °F 26.4 °F 23.9 °F 75% 29.89 in 10.0 mi NNW 4.6 mph - N/A   Scattered Clouds
1:15 AM 30.2 °F 24.3 °F 23.2 °F 75% 29.89 in 10.0 mi NNW 5.8 mph - N/A   Clear
1:35 AM 26.8 °F 20.2 °F 21.7 °F 81% 29.89 in 10.0 mi NNW 5.8 mph - N/A   Clear
1:55 AM 29.5 °F 23.4 °F 23.4 °F 78% 29.88 in 10.0 mi North 5.8 mph - N/A   Clear
2:15 AM 29.3 °F 22.3 °F 23.2 °F 78% 29.88 in 10.0 mi NNW 6.9 mph - N/A   Clear
2:35 AM 25.7 °F 21.5 °F 21.2 °F 83% 29.88 in 10.0 mi NNW 3.5 mph - N/A   Clear
2:55 AM 23.9 °F - 20.3 °F 86% 29.88 in 10.0 mi Calm Calm - N/A   Scattered Clouds
3:15 AM 22.6 °F - 19.8 °F 89% 29.87 in 10.0 mi Calm Calm - N/A   Mostly Cloudy
3:35 AM 24.4 °F - 20.8 °F 86% 29.86 in 10.0 mi Calm Calm - N/A   Scattered Clouds
3:55 AM 24.1 °F 19.7 °F 21.0 °F 88% 29.85 in 10.0 mi NNW 3.5 mph - N/A   Clear
4:15 AM 25.3 °F 21.1 °F 21.7 °F 86% 29.84 in 10.0 mi NW 3.5 mph - N/A   Scattered Clouds
4:35 AM 23.5 °F 19.1 °F 20.3 °F 87% 29.85 in 10.0 mi NW 3.5 mph - N/A   Scattered Clouds
4:55 AM 23.0 °F 18.4 °F 20.1 °F 89% 29.84 in 10.0 mi West 3.5 mph - N/A   Scattered Clouds
5:15 AM 22.8 °F - 20.1 °F 89% 29.84 in 10.0 mi Calm Calm - N/A   Clear
5:35 AM 24.4 °F - 21.4 °F 88% 29.84 in 10.0 mi Calm Calm - N/A   Clear
6:15 AM 25.2 °F - 21.6 °F 86% 29.84 in 10.0 mi Calm Calm - N/A   Clear
6:35 AM 23.9 °F - 20.7 °F 87% 29.84 in 10.0 mi Calm Calm - N/A   Clear
6:55 AM 24.8 °F 19.1 °F 21.4 °F 87% 29.84 in 10.0 mi NNW 4.6 mph - N/A   Clear
7:15 AM 25.5 °F 21.3 °F 21.7 °F 86% 29.83 in 10.0 mi NW 3.5 mph - N/A   Clear
7:35 AM 22.6 °F - 19.9 °F 89% 29.83 in 10.0 mi Calm Calm - N/A   Clear
7:55 AM 23.5 °F 19.1 °F 19.9 °F 86% 29.83 in 10.0 mi NNW 3.5 mph - N/A   Clear
8:15 AM 25.0 °F - 21.7 °F 87% 29.83 in 10.0 mi Calm Calm - N/A   Clear
8:35 AM 29.8 °F - 24.3 °F 80% 29.83 in 10.0 mi Calm Calm - N/A   Clear
8:55 AM 32.4 °F 29.1 °F 24.6 °F 73% 29.82 in 10.0 mi WNW 3.5 mph - N/A   Clear
9:15 AM 34.7 °F - 25.3 °F 69% 29.82 in 10.0 mi Calm Calm - N/A   Clear
9:35 AM 37.4 °F 31.4 °F 25.5 °F 62% 29.82 in 10.0 mi WNW 8.1 mph - N/A   Clear
9:55 AM 39.6 °F 35.4 °F 25.3 °F 57% 29.82 in 10.0 mi West 5.8 mph - N/A   Clear
10:15 AM 41.2 °F 36.6 °F 24.8 °F 52% 29.82 in 10.0 mi WNW 6.9 mph - N/A   Clear
10:35 AM 43.3 °F 39.9 °F 24.8 °F 48% 29.81 in 10.0 mi West 5.8 mph - N/A   Clear
10:55 AM 45.1 °F 42.0 °F 24.6 °F 45% 29.80 in 10.0 mi WSW 5.8 mph - N/A   Clear
11:15 AM 47.3 °F - 23.4 °F 39% 29.80 in 10.0 mi West 8.1 mph - N/A   Clear
11:35 AM 48.9 °F - 23.5 °F 37% 29.80 in 10.0 mi West 8.1 mph - N/A   Clear
11:55 AM 49.8 °F - 22.5 °F 34% 29.79 in 10.0 mi WSW 11.5 mph 16.1 mph N/A   Clear
12:15 PM 50.4 °F - 21.4 °F 32% 29.79 in 10.0 mi West 11.5 mph 17.3 mph N/A   Clear
12:35 PM 51.3 °F - 21.4 °F 31% 29.79 in 10.0 mi WNW 11.5 mph 19.6 mph N/A   Clear
12:55 PM 52.0 °F - 20.1 °F 29% 29.77 in 10.0 mi West 9.2 mph 20.7 mph N/A   Clear
1:15 PM 52.7 °F - 20.1 °F 28% 29.76 in 10.0 mi West 15.0 mph 21.9 mph N/A   Scattered Clouds
1:35 PM 52.9 °F - 20.7 °F 28% 29.75 in 10.0 mi West 12.7 mph 18.4 mph N/A   Scattered Clouds
1:55 PM 54.1 °F - 21.4 °F 28% 29.73 in 10.0 mi West 9.2 mph 16.1 mph N/A   Scattered Clouds
2:15 PM 54.5 °F - 22.3 °F 29% 29.73 in 10.0 mi West 16.1 mph 20.7 mph N/A   Clear
2:35 PM 54.3 °F - 23.0 °F 30% 29.72 in 10.0 mi West 15.0 mph 24.2 mph N/A   Scattered Clouds
2:55 PM 53.1 °F - 23.9 °F 32% 29.72 in 10.0 mi West 13.8 mph 21.9 mph N/A   Scattered Clouds
3:15 PM 53.2 °F - 24.1 °F 32% 29.72 in 10.0 mi West 12.7 mph 18.4 mph N/A   Clear
3:35 PM 53.4 °F - 23.7 °F 32% 29.72 in 10.0 mi WNW 11.5 mph 17.3 mph N/A   Scattered Clouds
3:55 PM 51.8 °F - 24.4 °F 34% 29.73 in 10.0 mi West 13.8 mph 18.4 mph N/A   Mostly Cloudy
4:15 PM 51.4 °F - 24.8 °F 35% 29.74 in 10.0 mi WNW 13.8 mph 23.0 mph N/A   Scattered Clouds
4:35 PM 51.8 °F - 25.7 °F 36% 29.73 in 10.0 mi WNW 15.0 mph 19.6 mph N/A   Scattered Clouds
4:55 PM 52.2 °F - 26.2 °F 37% 29.73 in 10.0 mi WNW 13.8 mph 20.7 mph N/A   Scattered Clouds
5:15 PM 52.0 °F - 26.6 °F 37% 29.73 in 10.0 mi WNW 12.7 mph 20.7 mph N/A   Clear
5:35 PM 50.5 °F - 27.1 °F 40% 29.73 in 10.0 mi West 8.1 mph - N/A   Scattered Clouds
5:55 PM 50.5 °F - 26.4 °F 39% 29.73 in 10.0 mi WNW 8.1 mph - N/A   Overcast
6:15 PM 49.5 °F - 26.2 °F 40% 29.73 in 10.0 mi West 9.2 mph 16.1 mph N/A   Overcast
6:35 PM 47.3 °F - 26.8 °F 45% 29.74 in 10.0 mi West 4.6 mph - N/A   Mostly Cloudy
6:55 PM 45.0 °F 43.5 °F 27.1 °F 50% 29.75 in 10.0 mi West 3.5 mph - N/A   Scattered Clouds
7:15 PM 42.6 °F - 27.1 °F 54% 29.75 in 10.0 mi Calm Calm - N/A   Clear
7:35 PM 41.5 °F 37.8 °F 27.7 °F 58% 29.76 in 10.0 mi WNW 5.8 mph - N/A   Clear
7:55 PM 40.5 °F 37.3 °F 27.7 °F 60% 29.76 in 10.0 mi WNW 4.6 mph - N/A   Clear
8:15 PM 39.9 °F 35.1 °F 28.2 °F 63% 29.77 in 10.0 mi NW 6.9 mph - N/A   Clear
8:35 PM 39.4 °F 34.5 °F 28.2 °F 64% 29.77 in 10.0 mi NW 6.9 mph - N/A   Scattered Clouds
8:55 PM 41.9 °F 36.9 °F 28.9 °F 60% 29.77 in 10.0 mi WNW 8.1 mph - N/A   Mostly Cloudy
9:15 PM 41.4 °F 36.8 °F 29.1 °F 62% 29.78 in 10.0 mi NW 6.9 mph - N/A   Mostly Cloudy
9:35 PM 43.7 °F 37.7 °F 29.8 °F 58% 29.79 in 10.0 mi NW 11.5 mph - N/A   Overcast
9:55 PM 41.9 °F 36.9 °F 29.8 °F 62% 29.79 in 10.0 mi NW 8.1 mph - N/A   Overcast
10:15 PM 41.9 °F 36.3 °F 30.0 °F 63% 29.79 in 10.0 mi NW 9.2 mph - N/A   Overcast
10:35 PM 41.5 °F 35.9 °F 30.2 °F 64% 29.81 in 10.0 mi NW 9.2 mph - N/A   Mostly Cloudy
10:55 PM 42.4 °F 35.0 °F 30.2 °F 62% 29.81 in 10.0 mi NW 15.0 mph - N/A   Mostly Cloudy
11:15 PM 41.0 °F 34.3 °F 29.3 °F 63% 29.82 in 10.0 mi NW 11.5 mph - N/A   Scattered Clouds
11:35 PM 41.0 °F 34.7 °F 29.7 °F 64% 29.83 in 10.0 mi NW 10.4 mph - N/A   Scattered Clouds
11:55 PM 41.0 °F 33.9 °F 29.8 °F 64% 29.83 in 10.0 mi NW 12.7 mph 18.4 mph N/A   Mostly Cloudy